User: anonymous   Login
Location: *
(12.5665°N, 8.3471°E)
Time: 06:31:00
(UTC+00:00)
Language:

Cosmos 1656 - Orbit

View from above orbital plane
View from above orbital plane
View from above satellite
View from above satellite

Ground track
Ground track

The orbit data is extracted from the following two-line orbital elements,

1 15755U 85042A   19316.99966010 -.00000071  00000-0 -11020-4 0  9990
2 15755  71.1096 311.6521 0033574 128.8017 231.6116 14.20441169785481
Epoch (UTC): 12 November 2019 23:59:30
Eccentricity: 0.0033574
inclination: 71.1096°
perigee height: 799 km
apogee height: 848 km
right ascension of ascending node: 311.6521°
argument of perigee: 128.8017°
revolutions per day: 14.20441169
mean anomaly at epoch: 231.6116°
orbit number at epoch: 78548

The dashed part of the orbit path shows where the satellite is in the earth's shadow,  

DLR